TimeCDT,TemperatureF,Dew PointF,Humidity,Sea Level PressureIn,VisibilityMPH,Wind Direction,Wind SpeedMPH,Gust SpeedMPH,PrecipitationIn,Events,Conditions,WindDirDegrees,DateUTC
12:53 AM,37.4,35.6,93,29.71,10.0,West,4.6,-,N/A,,Overcast,270,2013-10-31 05:53:00
12:56 AM,37.0,35.1,93,29.75,10.0,West,4.6,-,N/A,,Overcast,270,2013-10-31 05:56:00
1:23 AM,35.6,35.6,100,29.71,10.0,Calm,Calm,-,N/A,,Overcast,0,2013-10-31 06:23:00
1:56 AM,37.0,35.1,93,29.74,10.0,WSW,3.5,-,N/A,,Overcast,240,2013-10-31 06:56:00
2:34 AM,35.6,33.8,93,29.69,10.0,West,3.5,-,N/A,,Mostly Cloudy,280,2013-10-31 07:34:00
2:43 AM,35.6,33.8,93,29.68,10.0,West,5.8,-,N/A,,Mostly Cloudy,280,2013-10-31 07:43:00
2:56 AM,36.0,34.0,93,29.71,10.0,WNW,5.8,-,N/A,,Mostly Cloudy,290,2013-10-31 07:56:00
3:56 AM,36.0,33.1,89,29.66,10.0,WNW,13.8,18.4,N/A,,Overcast,300,2013-10-31 08:56:00
4:56 AM,35.1,34.0,96,29.70,10.0,West,4.6,-,N/A,,Overcast,260,2013-10-31 09:56:00
5:56 AM,35.1,34.0,96,29.68,9.0,WNW,5.8,-,N/A,,Overcast,300,2013-10-31 10:56:00
6:56 AM,35.1,34.0,96,29.66,10.0,NW,5.8,-,N/A,,Overcast,320,2013-10-31 11:56:00
7:56 AM,35.1,34.0,96,29.65,10.0,WNW,5.8,-,N/A,,Overcast,290,2013-10-31 12:56:00
8:56 AM,37.0,34.0,89,29.64,10.0,WNW,8.1,-,N/A,,Overcast,300,2013-10-31 13:56:00
9:56 AM,37.9,34.0,86,29.64,10.0,West,6.9,-,N/A,,Overcast,270,2013-10-31 14:56:00
10:56 AM,39.0,35.1,86,29.62,10.0,West,8.1,-,N/A,,Overcast,280,2013-10-31 15:56:00
11:03 AM,39.2,35.6,87,29.57,10.0,WNW,5.8,-,N/A,,Overcast,290,2013-10-31 16:03:00
11:56 AM,39.9,36.0,86,29.59,10.0,West,6.9,-,N/A,,Overcast,260,2013-10-31 16:56:00
12:56 PM,41.0,36.0,82,29.56,10.0,West,6.9,-,N/A,,Overcast,280,2013-10-31 17:56:00
1:32 PM,39.2,35.6,87,29.52,10.0,WNW,9.2,-,N/A,,Overcast,290,2013-10-31 18:32:00
1:56 PM,39.9,36.0,86,29.54,10.0,WNW,9.2,-,N/A,,Overcast,300,2013-10-31 18:56:00
2:51 PM,42.8,37.4,81,29.48,10.0,West,3.5,-,N/A,,Overcast,260,2013-10-31 19:51:00
2:56 PM,43.0,37.0,80,29.51,10.0,WNW,6.9,-,N/A,,Overcast,290,2013-10-31 19:56:00
3:56 PM,46.0,37.0,71,29.50,10.0,WNW,9.2,-,N/A,,Overcast,300,2013-10-31 20:56:00
4:56 PM,46.0,37.0,71,29.50,10.0,WNW,6.9,-,N/A,,Mostly Cloudy,290,2013-10-31 21:56:00
5:56 PM,45.0,37.0,74,29.51,10.0,NW,10.4,-,N/A,,Overcast,310,2013-10-31 22:56:00
6:56 PM,41.0,36.0,82,29.52,10.0,WNW,4.6,-,N/A,,Partly Cloudy,300,2013-10-31 23:56:00
7:56 PM,42.1,36.0,79,29.53,10.0,West,6.9,-,N/A,,Overcast,280,2013-11-01 00:56:00
8:56 PM,43.0,36.0,76,29.52,10.0,WNW,8.1,-,N/A,,Overcast,300,2013-11-01 01:56:00
9:56 PM,39.9,35.1,83,29.53,10.0,West,5.8,-,N/A,,Mostly Cloudy,270,2013-11-01 02:56:00
10:56 PM,37.9,35.1,89,29.55,10.0,West,5.8,-,N/A,,Scattered Clouds,280,2013-11-01 03:56:00
11:56 PM,39.0,35.1,86,29.56,10.0,WNW,8.1,-,N/A,,Mostly Cloudy,290,2013-11-01 04:56:00